• In Hungary
  • List of Countries
  • For 7 days
  • Water Temperature
  • Satellite Maps
  • Weather Map
  • News
  • Weather Widgets
  • user-avatar
    Login

    Hourly Weather Maracaibo

    Today, 23 May, Wednesday

    Time Temperature Precipitation Wind Pressure Humidity
    00:00 +27°C° 0.2 mm 5 mps 753 mmHg 87%
    01:00 +27°C° 0 mm 4 mps 753 mmHg 87%
    02:00 +27°C° 0 mm 4 mps 753 mmHg 87%
    03:00 +27°C° 0 mm 4 mps 753 mmHg 87%
    04:00 +27°C° 0 mm 4 mps 753 mmHg 87%
    05:00 +27°C° 0 mm 4 mps 753 mmHg 85%
    06:00 +28°C° 0 mm 4 mps 753 mmHg 83%
    07:00 +29°C° 0 mm 3 mps 754 mmHg 79%
    08:00 +30°C° 0.1 mm 3 mps 754 mmHg 73%
    09:00 +32°C° 0.1 mm 2 mps 754 mmHg 67%
    10:00 +34°C° 0.1 mm 2 mps 754 mmHg 60%
    11:00 +35°C° 0 mm 3 mps 753 mmHg 58%
    12:00 +36°C° 0 mm 3 mps 753 mmHg 55%
    13:00 +36°C° 0 mm 3 mps 752 mmHg 53%
    14:00 +36°C° 0.1 mm 3 mps 752 mmHg 56%
    15:00 +35°C° 0.1 mm 3 mps 752 mmHg 60%
    16:00 +34°C° 0.1 mm 4 mps 751 mmHg 64%
    17:00 +33°C° 0 mm 3 mps 752 mmHg 68%
    18:00 +31°C° 0 mm 3 mps 752 mmHg 73%
    19:00 +29°C° 0 mm 3 mps 752 mmHg 77%
    20:00 +29°C° 0.1 mm 3 mps 753 mmHg 79%
    21:00 +29°C° 0.1 mm 3 mps 753 mmHg 81%
    22:00 +28°C° 0.1 mm 3 mps 754 mmHg 82%
    23:00 +28°C° 0.3 mm 3 mps 754 mmHg 84%

    Tomorrow, 24 May, Thursday

    Time Temperature Precipitation Wind Pressure Humidity
    00:00 +28°C° 0.3 mm 2 mps 753 mmHg 86%
    01:00 +27°C° 0.3 mm 2 mps 753 mmHg 88%
    02:00 +27°C° 0.9 mm 2 mps 753 mmHg 88%
    03:00 +27°C° 0.9 mm 3 mps 753 mmHg 88%
    04:00 +27°C° 0.9 mm 3 mps 753 mmHg 88%
    05:00 +28°C° 0.3 mm 3 mps 753 mmHg 87%
    06:00 +28°C° 0.3 mm 3 mps 754 mmHg 86%
    07:00 +28°C° 0.3 mm 3 mps 754 mmHg 84%
    08:00 +30°C° 0.3 mm 2 mps 754 mmHg 77%
    09:00 +31°C° 0.3 mm 2 mps 754 mmHg 70%
    10:00 +34°C° 0.3 mm 2 mps 754 mmHg 63%
    11:00 +35°C° 0 mm 2 mps 753 mmHg 60%
    12:00 +36°C° 0 mm 2 mps 753 mmHg 56%
    13:00 +36°C° 0 mm 3 mps 752 mmHg 53%
    14:00 +36°C° 0 mm 3 mps 752 mmHg 57%
    15:00 +35°C° 0 mm 4 mps 751 mmHg 60%
    16:00 +34°C° 0 mm 4 mps 751 mmHg 64%
    17:00 +33°C° 0 mm 4 mps 751 mmHg 68%
    18:00 +32°C° 0 mm 4 mps 752 mmHg 72%
    19:00 +29°C° 0 mm 4 mps 752 mmHg 76%
    20:00 +29°C° 0.3 mm 4 mps 752 mmHg 79%
    21:00 +28°C° 0.3 mm 4 mps 753 mmHg 83%
    22:00 +28°C° 0.3 mm 4 mps 753 mmHg 86%
    23:00 +27°C° 1.9 mm 4 mps 753 mmHg 87%

    Day after tomorrow, 25 May, Friday

    Time Temperature Precipitation Wind Pressure Humidity
    00:00 +27°C° 1.9 mm 4 mps 753 mmHg 87%
    01:00 +27°C° 1.9 mm 4 mps 753 mmHg 88%
    02:00 +27°C° 1 mm 3 mps 752 mmHg 88%
    03:00 +27°C° 1 mm 3 mps 752 mmHg 88%
    04:00 +27°C° 1 mm 3 mps 752 mmHg 88%
    05:00 +28°C° 2 mm 3 mps 752 mmHg 87%
    06:00 +28°C° 2 mm 3 mps 753 mmHg 86%
    07:00 +28°C° 2 mm 4 mps 753 mmHg 85%
    08:00 +30°C° 1.5 mm 3 mps 753 mmHg 81%
    09:00 +31°C° 1.5 mm 3 mps 753 mmHg 77%
    10:00 +33°C° 1.5 mm 3 mps 753 mmHg 73%
    11:00 +33°C° 0.3 mm 3 mps 752 mmHg 69%
    12:00 +34°C° 0.3 mm 2 mps 752 mmHg 66%
    13:00 +35°C° 0.3 mm 2 mps 751 mmHg 62%
    14:00 +34°C° 0.1 mm 2 mps 751 mmHg 64%
    15:00 +34°C° 0.1 mm 2 mps 750 mmHg 67%
    16:00 +34°C° 0.1 mm 2 mps 750 mmHg 69%
    17:00 +31°C° 0.2 mm 2 mps 750 mmHg 72%
    18:00 +30°C° 0.2 mm 3 mps 751 mmHg 76%
    19:00 +29°C° 0.2 mm 3 mps 751 mmHg 79%
    20:00 +29°C° 1.7 mm 3 mps 752 mmHg 83%
    21:00 +28°C° 1.7 mm 2 mps 752 mmHg 86%
    22:00 +28°C° 1.7 mm 2 mps 752 mmHg 89%
    23:00 +28°C° 1.1 mm 3 mps 752 mmHg 89%

    26 May, Saturday

    Time Temperature Precipitation Wind Pressure Humidity
    00:00 +27°C° 1.1 mm 3 mps 752 mmHg 90%
    01:00 +27°C° 1.1 mm 3 mps 752 mmHg 90%
    02:00 +27°C° 0.9 mm 3 mps 752 mmHg 90%
    03:00 +27°C° 0.9 mm 2 mps 752 mmHg 91%
    04:00 +27°C° 0.9 mm 2 mps 752 mmHg 91%
    05:00 +27°C° 0.5 mm 2 mps 752 mmHg 90%
    06:00 +28°C° 0.5 mm 2 mps 752 mmHg 88%
    07:00 +28°C° 0.5 mm 2 mps 753 mmHg 87%
    08:00 +29°C° 0.7 mm 2 mps 753 mmHg 81%
    09:00 +31°C° 0.7 mm 2 mps 753 mmHg 75%
    10:00 +32°C° 0.7 mm 2 mps 753 mmHg 69%
    11:00 +34°C° 0.4 mm 2 mps 753 mmHg 65%
    12:00 +35°C° 0.4 mm 2 mps 752 mmHg 61%
    13:00 +35°C° 0.4 mm 2 mps 752 mmHg 56%
    14:00 +35°C° 0.1 mm 2 mps 751 mmHg 59%
    15:00 +35°C° 0.1 mm 2 mps 751 mmHg 62%
    16:00 +34°C° 0.1 mm 2 mps 750 mmHg 64%
    17:00 +33°C° 0.5 mm 3 mps 751 mmHg 71%
    18:00 +30°C° 0.5 mm 3 mps 751 mmHg 78%
    19:00 +28°C° 0.5 mm 3 mps 752 mmHg 85%
    20:00 +28°C° 1.1 mm 3 mps 752 mmHg 86%
    21:00 +28°C° 1.1 mm 4 mps 752 mmHg 87%
    22:00 +27°C° 1.1 mm 4 mps 753 mmHg 88%
    23:00 +27°C° 1.8 mm 3 mps 753 mmHg 89%

    27 May, Sunday

    Time Temperature Precipitation Wind Pressure Humidity
    00:00 +27°C° 1.8 mm 3 mps 752 mmHg 90%
    01:00 +27°C° 1.8 mm 3 mps 752 mmHg 91%
    02:00 +27°C° 1.3 mm 3 mps 752 mmHg 92%
    03:00 +26°C° 1.3 mm 3 mps 752 mmHg 92%
    04:00 +26°C° 1.3 mm 3 mps 752 mmHg 93%
    05:00 +27°C° 0.5 mm 3 mps 752 mmHg 92%
    06:00 +27°C° 0.5 mm 3 mps 753 mmHg 90%
    07:00 +28°C° 0.5 mm 3 mps 753 mmHg 89%
    08:00 +29°C° 0.7 mm 2 mps 753 mmHg 82%
    09:00 +31°C° 0.7 mm 2 mps 753 mmHg 75%
    10:00 +32°C° 0.7 mm 2 mps 753 mmHg 68%
    11:00 +34°C° 0 mm 2 mps 753 mmHg 65%
    12:00 +35°C° 0 mm 2 mps 752 mmHg 61%
    13:00 +36°C° 0 mm 3 mps 751 mmHg 57%
    14:00 +35°C° 0.1 mm 3 mps 751 mmHg 60%
    15:00 +35°C° 0.1 mm 2 mps 751 mmHg 63%
    16:00 +34°C° 0.1 mm 2 mps 750 mmHg 66%
    17:00 +33°C° 0.5 mm 3 mps 751 mmHg 72%
    18:00 +30°C° 0.5 mm 3 mps 752 mmHg 77%
    19:00 +29°C° 0.5 mm 3 mps 752 mmHg 83%
    20:00 +29°C° 1.7 mm 3 mps 753 mmHg 84%
    21:00 +28°C° 1.7 mm 3 mps 753 mmHg 85%
    22:00 +28°C° 1.7 mm 2 mps 753 mmHg 86%
    23:00 +28°C° 1.1 mm 2 mps 753 mmHg 88%

    28 May, Monday

    Time Temperature Precipitation Wind Pressure Humidity
    00:00 +27°C° 1.1 mm 3 mps 753 mmHg 90%
    01:00 +27°C° 1.1 mm 3 mps 752 mmHg 92%
    02:00 +27°C° 1 mm 3 mps 752 mmHg 92%
    03:00 +27°C° 1 mm 3 mps 752 mmHg 92%
    04:00 +27°C° 1 mm 3 mps 752 mmHg 92%
    05:00 +27°C° 0.6 mm 3 mps 753 mmHg 91%
    06:00 +28°C° 0.6 mm 3 mps 753 mmHg 90%
    07:00 +28°C° 0.6 mm 2 mps 753 mmHg 88%
    08:00 +29°C° 0.4 mm 2 mps 753 mmHg 83%
    09:00 +30°C° 0.4 mm 2 mps 753 mmHg 77%
    10:00 +31°C° 0.4 mm 2 mps 754 mmHg 72%
    11:00 +32°C° 0.2 mm 2 mps 753 mmHg 70%
    12:00 +32°C° 0.2 mm 2 mps 752 mmHg 68%
    13:00 +34°C° 0.2 mm 2 mps 752 mmHg 67%
    14:00 +32°C° 0.1 mm 2 mps 752 mmHg 69%
    15:00 +32°C° 0.1 mm 2 mps 751 mmHg 70%
    16:00 +32°C° 0.1 mm 2 mps 751 mmHg 72%
    17:00 +31°C° 0.6 mm 2 mps 752 mmHg 77%
    18:00 +29°C° 0.6 mm 3 mps 752 mmHg 82%
    19:00 +28°C° 0.6 mm 3 mps 753 mmHg 86%
    20:00 +28°C° 0.3 mm 3 mps 753 mmHg 87%
    21:00 +28°C° 0.3 mm 3 mps 753 mmHg 87%
    22:00 +27°C° 0.3 mm 3 mps 754 mmHg 88%
    23:00 +27°C° 0.8 mm 3 mps 754 mmHg 88%
    Show more